Tracking 28794 objects as of 19-Apr-2024
HD Live streaming from Space Station
objects crossing your sky now

NOAA 16 DEB

Track NOAA 16 DEB now!
10-day predictions


NORAD ID: 42395
Int'l Code: 2000-055SP
Perigee: 737.4 km
Apogee: 773.3 km
Inclination: 98.9 °
Period: 99.8 minutes
Semi major axis: 7126 km
RCS: Unknown
Launch date: September 21, 2000
Source: United States (US)
Launch site: AIR FORCE WESTERN TEST RANGE (AFWTR)

Note: This is SATELLITE DEBRIS
Your satellite tracking list
Your tracking list is empty




NASA's NSSDC Master Catalog

Two Line Element Set (TLE):
1 42395U 00055SP  24109.20847650  .00042316  00000-0  12492-1 0  9996
2 42395  98.9129 255.3137 0025197 240.8666 119.0000 14.43123591422232
Source of the keplerian elements: AFSPC